STARLINK-1477, 45754

Orbit data source: Space-Track

STARLINK-1477, 45754 is a payload satellite owned by SpaceX/Seattle (US) in LEO that was launched on Sat, 13 Jun 2020 UTC via an FALCON 9 launch vehicle from the Air Force Eastern Test Range (AFETR). Payload-class satellites include a variety of spacecraft equipped with specific instruments for various scientific and technological missions. These include communications satellites like Starlink; space stations such as the ISS; scientific satellites like the Hubble; Earth observation satellites from companies like Planet Labs, Umbra, and HawkEye 360; GPS; miniature CubeSats for education and research; and military/defense satellites.

Loading next visibility...
Identifier
45754, 2020-038AA
Orbit
LEO
Last TLE update
9 hours ago
Origin
Manufacturer
SpaceX/Seattle
Mission
Operational Commercial Communications
Bus & Motor
STARLINK, Unknown motor
Mass
260 kg wet, ~248 kg dry
Launch date (UTC)
2020-06-13 (5 years ago)
Launch vehicle
FALCON 9
Launch site
Air Force Eastern Test Range (AFETR)
Object type
Payload
Rocket body
Debris
Shape & HBR
Box + 1 Pan, 8.86 m
Radar Cross Section
13.562 m², Large (>1 m²)

Expand to show TLE details & history

TLE from 9 hours ago
0 STARLINK-1477
1 45754U 20038AA  25186.57100927  .00002741  00000-0  20280-3 0  9990
2 45754  53.0534 245.9774 0001236  79.7524 280.3604 15.06409459279230
Epoch: 2025-07-05T13:42Z
TLE epoch observation values (Epoch: 2025-07-05T13:42:15.2Z)
Latitude
-0.00007°
Longitude
116.60687°
Altitude
547.908 km
Speed
7.589 km/s
True Right ascension
16h 23m 54s
True Declination
0° 00' 00"
Sunlit
Object was in full shadow at epoch
Visualization orbit readout
Latitude
-25.03341°
Longitude
94.40001°
Altitude
554.774 km
Speed
7.584 km/s
Apparent Right ascension
18h 08m 43s
Apparent Declination
-51° 32' 24"
Sunlit
Object is in full shadow
Visualization observer readout
Local Sidereal Time
11:03:20
Azimuth
129.287° SE
Elevation
-39.546°
Doppler factor
1
Orbital elements
Apogee altitude
548.309 km
Perigee altitude
546.597 km
Semi-major axis
6,925.59 km
Eccentricity
0.00012
Inclination
53.0534°
RAAN
245.9774°
Arg. of periapsis
79.7524°
True anomaly
Unknown
Mean anomaly
280.3604°
Eccentric anomaly
Unknown
Mean motion
3.76581 °/min
Orbital period
95.6 mins
BSTAR
0.0002028
Loading maneuver chart data...
Loading SW <> Apogee altitude chart data...

STARLINK-1477 Visibility forecast

Observer location: undefined°, undefined°

Span
Click to sort rows by Start time (UTC) header in descending order
Start Az.
Max El. time (UTC)
Max El. Az.
Max El.
End time (UTC)
End Az.
6 mins2025-07-06 05:47:02.571Z179.803° S2025-07-06 05:50:02.571Z118.721° SE23.772°2025-07-06 05:53:02.571Z72.448° E
5 mins2025-07-06 07:27:02.571Z269.106° W2025-07-06 07:29:02.571Z330.66° NNW34.838°2025-07-06 07:32:02.571Z35.603° NE
5 mins2025-07-06 12:29:02.571Z345.186° N2025-07-06 12:31:02.571Z37.835° NE28.021°2025-07-06 12:34:02.571Z91.333° ESE
6 mins2025-07-06 14:08:02.571Z285.846° WNW2025-07-06 14:10:02.571Z239.262° WSW32.819°2025-07-06 14:14:02.571Z157.104° SSE
|